Time,TemperatureF,DewpointF,PressureIn,WindDirection,WindDirectionDegrees,WindSpeedMPH,WindSpeedGustMPH,Humidity,HourlyPrecipIn,Conditions,Clouds,dailyrainin,SolarRadiationWatts/m^2,SoftwareType,DateUTC
2013-03-05 02:00:00,57.0,52.0,-100.00,SE,132,1.0,-999.0,82,-99.99,,,-99.99,0.000000,,2013-03-05 08:00:00,
2013-03-05 02:52:00,57.0,52.0,-100.00,SE,132,1.0,-999.0,82,-99.99,,,-99.99,0.000000,,2013-03-05 08:52:00,
2013-03-05 03:00:00,58.0,53.0,-100.00,SE,143,1.0,-999.0,83,-99.99,,,-99.99,0.000000,,2013-03-05 09:00:00,
2013-03-05 03:52:00,58.0,53.0,-100.00,SE,143,1.0,-999.0,83,-99.99,,,-99.99,0.000000,,2013-03-05 09:52:00,
2013-03-05 04:00:00,59.0,54.0,-100.00,SSE,158,1.0,-999.0,85,-99.99,,,-99.99,0.000000,,2013-03-05 10:00:00,
2013-03-05 04:52:00,59.0,54.0,-100.00,SSE,158,1.0,-999.0,85,-99.99,,,-99.99,0.000000,,2013-03-05 10:52:00,
2013-03-05 05:00:00,59.0,55.0,-100.00,South,179,2.0,-999.0,87,-99.99,,,-99.99,0.000000,,2013-03-05 11:00:00,
2013-03-05 05:52:00,59.0,55.0,-100.00,South,179,2.0,-999.0,87,-99.99,,,-99.99,0.000000,,2013-03-05 11:52:00,
2013-03-05 06:00:00,61.0,57.0,-100.00,South,180,4.0,-999.0,88,-99.99,,,-99.99,0.000000,,2013-03-05 12:00:00,
2013-03-05 06:53:00,61.0,57.0,-100.00,South,180,4.0,-999.0,88,-99.99,,,-99.99,0.000000,,2013-03-05 12:53:00,
2013-03-05 07:00:00,59.0,58.0,-100.00,South,191,6.0,-999.0,95,-99.99,,,-99.99,0.990000,,2013-03-05 13:00:00,
2013-03-05 07:52:00,59.0,58.0,-100.00,South,191,6.0,-999.0,95,-99.99,,,-99.99,0.990000,,2013-03-05 13:52:00,
2013-03-05 08:00:00,59.0,56.0,-100.00,SW,230,10.0,-999.0,92,-99.99,,,-99.99,5.470000,,2013-03-05 14:00:00,
2013-03-05 08:52:00,59.0,56.0,-100.00,SW,230,10.0,-999.0,92,-99.99,,,-99.99,5.470000,,2013-03-05 14:52:00,
2013-03-05 09:00:00,52.0,47.0,-100.00,WNW,298,19.0,-999.0,84,-99.99,,,-99.99,27.370001,,2013-03-05 15:00:00,
2013-03-05 09:52:00,52.0,47.0,-100.00,WNW,298,19.0,-999.0,84,-99.99,,,-99.99,27.370001,,2013-03-05 15:52:00,
2013-03-05 10:00:00,45.0,41.0,-100.00,NW,304,21.0,-999.0,86,-99.99,,,-99.99,59.689999,,2013-03-05 16:00:00,
2013-03-05 10:52:00,45.0,41.0,-100.00,NW,304,21.0,-999.0,86,-99.99,,,-99.99,59.689999,,2013-03-05 16:52:00,
2013-03-05 11:00:00,44.0,40.0,-100.00,NW,305,19.0,-999.0,84,-99.99,,,-99.99,81.900002,,2013-03-05 17:00:00,
2013-03-05 11:53:00,44.0,40.0,-100.00,NW,305,19.0,-999.0,84,-99.99,,,-99.99,81.900002,,2013-03-05 17:53:00,
2013-03-05 12:00:00,47.0,37.0,-100.00,NW,307,18.0,-999.0,69,-99.99,,,-99.99,336.299988,,2013-03-05 18:00:00,
2013-03-05 12:53:00,47.0,37.0,-100.00,NW,307,18.0,-999.0,69,-99.99,,,-99.99,336.299988,,2013-03-05 18:53:00,
2013-03-05 13:00:00,49.0,37.0,-100.00,WNW,299,18.0,-999.0,63,-99.99,,,-99.99,308.399994,,2013-03-05 19:00:00,
2013-03-05 13:52:00,49.0,37.0,-100.00,WNW,299,18.0,-999.0,63,-99.99,,,-99.99,308.399994,,2013-03-05 19:52:00,
2013-03-05 14:00:00,50.0,36.0,-100.00,WNW,299,18.0,-999.0,57,-99.99,,,-99.99,602.200012,,2013-03-05 20:00:00,
2013-03-05 14:52:00,50.0,36.0,-100.00,WNW,299,18.0,-999.0,57,-99.99,,,-99.99,602.200012,,2013-03-05 20:52:00,
2013-03-05 15:00:00,53.0,34.0,-100.00,WNW,287,16.0,-999.0,48,-99.99,,,-99.99,554.200012,,2013-03-05 21:00:00,
2013-03-05 15:52:00,53.0,34.0,-100.00,WNW,287,16.0,-999.0,48,-99.99,,,-99.99,554.200012,,2013-03-05 21:52:00,
2013-03-05 16:00:00,54.0,32.0,-100.00,WNW,284,16.0,-999.0,44,-99.99,,,-99.99,486.600006,,2013-03-05 22:00:00,
2013-03-05 16:52:00,54.0,32.0,-100.00,WNW,284,16.0,-999.0,44,-99.99,,,-99.99,486.600006,,2013-03-05 22:52:00,
2013-03-05 17:00:00,53.0,30.0,-100.00,WNW,283,16.0,-999.0,41,-99.99,,,-99.99,294.700012,,2013-03-05 23:00:00,
2013-03-05 17:53:00,53.0,30.0,-100.00,WNW,283,16.0,-999.0,41,-99.99,,,-99.99,294.700012,,2013-03-05 23:53:00,
2013-03-05 18:00:00,51.0,29.0,-100.00,WNW,284,14.0,-999.0,43,-99.99,,,-99.99,89.500000,,2013-03-06 00:00:00,
2013-03-05 18:52:00,51.0,29.0,-100.00,WNW,284,14.0,-999.0,43,-99.99,,,-99.99,89.500000,,2013-03-06 00:52:00,
2013-03-05 19:00:00,48.0,27.0,-100.00,West,276,11.0,-999.0,45,-99.99,,,-99.99,1.350000,,2013-03-06 01:00:00,
2013-03-05 19:52:00,48.0,27.0,-100.00,West,276,11.0,-999.0,45,-99.99,,,-99.99,1.350000,,2013-03-06 01:52:00,
2013-03-05 20:00:00,45.0,26.0,-100.00,WNW,303,9.0,-999.0,46,-99.99,,,-99.99,0.670000,,2013-03-06 02:00:00,
2013-03-05 20:52:00,45.0,26.0,-100.00,WNW,303,9.0,-999.0,46,-99.99,,,-99.99,0.670000,,2013-03-06 02:52:00,
2013-03-05 21:00:00,41.0,28.0,-100.00,WNW,290,6.0,-999.0,61,-99.99,,,-99.99,0.180000,,2013-03-06 03:00:00,
2013-03-05 21:52:00,41.0,28.0,-100.00,WNW,290,6.0,-999.0,61,-99.99,,,-99.99,0.180000,,2013-03-06 03:52:00,
2013-03-05 22:00:00,41.0,27.0,-100.00,WNW,282,6.0,-999.0,56,-99.99,,,-99.99,0.000000,,2013-03-06 04:00:00,
2013-03-05 22:52:00,41.0,27.0,-100.00,WNW,282,6.0,-999.0,56,-99.99,,,-99.99,0.000000,,2013-03-06 04:52:00,